Simultaneous Nadir Overpasses (SNOs) Predictions

Prediction of SNOs between GOES-16 and NPP Satellite Orbit:

Table of predicted SNOs for the next 14.0 days since TLE Epoch: 8/26/2022
Index Date Time (GOES-16) GOES-16 Lat,Lon NPP Lat,Lon Distance(km) Time Diff (sec)
1 08/27/2022 06:33:12 0.03, -75.20 0.34, -76.55 154.19 80
2 08/28/2022 06:11:49 0.03, -75.20 -0.71, -72.03 362.53 80
3 08/29/2022 18:33:46 -0.03, -75.22 -0.48, -77.34 240.33 80
4 08/30/2022 18:17:42 -0.03, -75.23 0.51, -72.80 276.85 80
5 09/01/2022 06:39:30 0.03, -75.24 0.68, -78.07 323.34 80
6 09/02/2022 06:18:06 0.03, -75.25 -0.37, -73.55 193.80 80
7 09/03/2022 18:40:04 -0.02, -75.27 -0.81, -78.86 408.93 80
8 09/04/2022 18:23:59 -0.02, -75.28 0.18, -74.32 108.16 80
9 09/06/2022 06:45:49 0.00, -75.28 0.95, -79.61 492.10 80
10 09/07/2022 06:24:24 -0.00, -75.29 -0.04, -75.07 25.20 80
